When you browse on this site, cookies collect data to enhance your experience and personalize the content and advertising you see.
Visit our Privacy Policy to learn more. By continuing to use the site, you agree to this use of cookies and data.
  • In Deutschland
  • Länderverzeichnis
  • Für 7 Tage
  • Wassertemperatur
  • Wetterkarte
  • Widgets
  • user-avatar
    Anmelden

    Stündliche Wetter Jaú

    Heute, 7 Dezember, Samstag

    Zeit Temperatur Niederschläge Wind Luftdruck Luftfeuchtigkeit
    00:00 +25°C° 0 mm 3 m/S 762 mmHg 63%
    01:00 +25°C° 0 mm 4 m/S 762 mmHg 62%
    02:00 +23°C° 0 mm 4 m/S 762 mmHg 60%
    03:00 +23°C° 0 mm 4 m/S 761 mmHg 60%
    04:00 +23°C° 0 mm 4 m/S 762 mmHg 59%
    05:00 +23°C° 0 mm 4 m/S 762 mmHg 57%
    06:00 +23°C° 0 mm 4 m/S 762 mmHg 56%
    07:00 +23°C° 0 mm 4 m/S 762 mmHg 56%
    08:00 +25°C° 0 mm 4 m/S 762 mmHg 56%
    09:00 +25°C° 0 mm 5 m/S 762 mmHg 56%
    10:00 +25°C° 0 mm 4 m/S 761 mmHg 56%
    11:00 +25°C° 0 mm 4 m/S 761 mmHg 56%
    12:00 +25°C° 0 mm 4 m/S 760 mmHg 56%
    13:00 +25°C° 0 mm 3 m/S 760 mmHg 56%
    14:00 +25°C° 0 mm 3 m/S 760 mmHg 56%
    15:00 +26°C° 0 mm 3 m/S 759 mmHg 55%
    16:00 +25°C° 0 mm 2 m/S 759 mmHg 56%
    17:00 +25°C° 0 mm 2 m/S 760 mmHg 56%
    18:00 +25°C° 0 mm 1 m/S 760 mmHg 57%
    19:00 +25°C° 0 mm 2 m/S 760 mmHg 58%
    20:00 +25°C° 0 mm 3 m/S 760 mmHg 59%
    21:00 +25°C° 0 mm 4 m/S 760 mmHg 60%
    22:00 +25°C° 0 mm 4 m/S 760 mmHg 59%
    23:00 +25°C° 0 mm 4 m/S 760 mmHg 58%

    Morgen, 8 Dezember, Sonntag

    Zeit Temperatur Niederschläge Wind Luftdruck Luftfeuchtigkeit
    00:00 +25°C° 0 mm 5 m/S 760 mmHg 58%
    01:00 +25°C° 0 mm 5 m/S 760 mmHg 59%
    02:00 +25°C° 0 mm 5 m/S 760 mmHg 60%
    03:00 +25°C° 0 mm 4 m/S 760 mmHg 62%
    04:00 +25°C° 0 mm 4 m/S 760 mmHg 63%
    05:00 +25°C° 0 mm 4 m/S 760 mmHg 63%
    06:00 +25°C° 0 mm 3 m/S 761 mmHg 64%
    07:00 +25°C° 0 mm 3 m/S 761 mmHg 63%
    08:00 +25°C° 0 mm 3 m/S 761 mmHg 62%
    09:00 +25°C° 0 mm 3 m/S 762 mmHg 61%
    10:00 +25°C° 0 mm 3 m/S 761 mmHg 59%
    11:00 +25°C° 0 mm 3 m/S 761 mmHg 57%
    12:00 +25°C° 0 mm 2 m/S 760 mmHg 55%
    13:00 +25°C° 0 mm 3 m/S 760 mmHg 55%
    14:00 +25°C° 0 mm 3 m/S 760 mmHg 55%
    15:00 +25°C° 0 mm 3 m/S 759 mmHg 56%
    16:00 +25°C° 0 mm 3 m/S 760 mmHg 58%
    17:00 +25°C° 0 mm 4 m/S 760 mmHg 60%
    18:00 +25°C° 0 mm 4 m/S 761 mmHg 62%
    19:00 +25°C° 0 mm 5 m/S 761 mmHg 64%
    20:00 +25°C° 0 mm 5 m/S 761 mmHg 66%
    21:00 +24°C° 0 mm 6 m/S 761 mmHg 68%
    22:00 +24°C° 0 mm 6 m/S 761 mmHg 69%
    23:00 +25°C° 0 mm 5 m/S 761 mmHg 70%

    übermorgen, 9 Dezember, Montag

    Zeit Temperatur Niederschläge Wind Luftdruck Luftfeuchtigkeit
    00:00 +25°C° 0 mm 5 m/S 761 mmHg 71%
    01:00 +24°C° 0 mm 6 m/S 761 mmHg 72%
    02:00 +24°C° 0 mm 6 m/S 761 mmHg 72%
    03:00 +24°C° 0 mm 6 m/S 760 mmHg 72%
    04:00 +24°C° 0 mm 6 m/S 761 mmHg 72%
    05:00 +23°C° 0 mm 6 m/S 761 mmHg 73%
    06:00 +23°C° 0 mm 7 m/S 761 mmHg 73%
    07:00 +23°C° 0 mm 7 m/S 761 mmHg 74%
    08:00 +23°C° 0 mm 7 m/S 762 mmHg 74%
    09:00 +23°C° 0 mm 7 m/S 762 mmHg 75%
    10:00 +23°C° 0.1 mm 7 m/S 761 mmHg 75%
    11:00 +23°C° 0.1 mm 6 m/S 761 mmHg 75%
    12:00 +24°C° 0.1 mm 6 m/S 761 mmHg 75%
    13:00 +23°C° 0.4 mm 6 m/S 760 mmHg 78%
    14:00 +23°C° 0.4 mm 6 m/S 760 mmHg 80%
    15:00 +23°C° 0.4 mm 7 m/S 759 mmHg 82%
    16:00 +23°C° 0.9 mm 7 m/S 760 mmHg 82%
    17:00 +22°C° 0.9 mm 6 m/S 760 mmHg 83%
    18:00 +22°C° 0.9 mm 6 m/S 760 mmHg 83%
    19:00 +23°C° 0.6 mm 6 m/S 760 mmHg 82%
    20:00 +23°C° 0.6 mm 6 m/S 760 mmHg 82%
    21:00 +23°C° 0.6 mm 6 m/S 760 mmHg 81%
    22:00 +23°C° 0.6 mm 6 m/S 760 mmHg 81%
    23:00 +23°C° 0.6 mm 6 m/S 760 mmHg 81%

    10 Dezember, Dienstag

    Zeit Temperatur Niederschläge Wind Luftdruck Luftfeuchtigkeit
    00:00 +23°C° 0.6 mm 6 m/S 760 mmHg 81%
    01:00 +23°C° 0.2 mm 5 m/S 759 mmHg 82%
    02:00 +25°C° 0.2 mm 5 m/S 759 mmHg 83%
    03:00 +25°C° 0.2 mm 5 m/S 759 mmHg 83%
    04:00 +25°C° 0.5 mm 5 m/S 759 mmHg 84%
    05:00 +23°C° 0.5 mm 6 m/S 759 mmHg 85%
    06:00 +23°C° 0.5 mm 6 m/S 760 mmHg 86%
    07:00 +23°C° 0 mm 6 m/S 760 mmHg 86%
    08:00 +23°C° 0 mm 6 m/S 760 mmHg 86%
    09:00 +23°C° 0 mm 6 m/S 761 mmHg 86%
    10:00 +24°C° 0.5 mm 6 m/S 760 mmHg 85%
    11:00 +24°C° 0.5 mm 6 m/S 760 mmHg 85%
    12:00 +25°C° 0.5 mm 5 m/S 759 mmHg 85%
    13:00 +23°C° 0.2 mm 6 m/S 759 mmHg 86%
    14:00 +23°C° 0.2 mm 6 m/S 758 mmHg 87%
    15:00 +23°C° 0.2 mm 6 m/S 757 mmHg 88%
    16:00 +23°C° 0.2 mm 5 m/S 758 mmHg 88%
    17:00 +23°C° 0.2 mm 5 m/S 758 mmHg 88%
    18:00 +23°C° 0.2 mm 4 m/S 758 mmHg 87%
    19:00 +23°C° 0.1 mm 4 m/S 758 mmHg 87%
    20:00 +23°C° 0.1 mm 4 m/S 758 mmHg 87%
    21:00 +23°C° 0.1 mm 4 m/S 758 mmHg 87%
    22:00 +23°C° 0.2 mm 4 m/S 758 mmHg 87%
    23:00 +23°C° 0.2 mm 4 m/S 758 mmHg 87%

    11 Dezember, Mittwoch

    Zeit Temperatur Niederschläge Wind Luftdruck Luftfeuchtigkeit
    00:00 +23°C° 0.2 mm 4 m/S 758 mmHg 87%
    01:00 +23°C° 0.3 mm 5 m/S 758 mmHg 86%
    02:00 +23°C° 0.3 mm 6 m/S 759 mmHg 84%
    03:00 +23°C° 0.3 mm 6 m/S 759 mmHg 83%
    04:00 +23°C° 0 mm 6 m/S 759 mmHg 81%
    05:00 +23°C° 0 mm 6 m/S 759 mmHg 79%
    06:00 +23°C° 0 mm 6 m/S 759 mmHg 77%
    07:00 +23°C° 0 mm 7 m/S 760 mmHg 75%
    08:00 +23°C° 0 mm 7 m/S 760 mmHg 74%
    09:00 +23°C° 0 mm 7 m/S 760 mmHg 72%
    10:00 +23°C° 0 mm 7 m/S 760 mmHg 71%
    11:00 +23°C° 0 mm 7 m/S 760 mmHg 69%
    12:00 +23°C° 0 mm 7 m/S 759 mmHg 68%
    13:00 +23°C° 0 mm 7 m/S 759 mmHg 67%
    14:00 +23°C° 0 mm 7 m/S 759 mmHg 66%
    15:00 +23°C° 0 mm 7 m/S 759 mmHg 65%
    16:00 +23°C° 0 mm 7 m/S 759 mmHg 64%
    17:00 +23°C° 0 mm 7 m/S 759 mmHg 64%
    18:00 +23°C° 0 mm 7 m/S 760 mmHg 64%
    19:00 +23°C° 0 mm 7 m/S 760 mmHg 64%
    20:00 +23°C° 0 mm 7 m/S 760 mmHg 64%
    21:00 +22°C° 0 mm 7 m/S 761 mmHg 64%
    22:00 +22°C° 0 mm 7 m/S 760 mmHg 64%
    23:00 +22°C° 0 mm 7 m/S 760 mmHg 64%

    12 Dezember, Donnerstag

    Zeit Temperatur Niederschläge Wind Luftdruck Luftfeuchtigkeit
    00:00 +22°C° 0 mm 7 m/S 760 mmHg 64%
    01:00 +22°C° 0 mm 7 m/S 760 mmHg 63%
    02:00 +22°C° 0 mm 7 m/S 759 mmHg 63%
    03:00 +22°C° 0 mm 7 m/S 759 mmHg 63%
    04:00 +22°C° 0 mm 6 m/S 760 mmHg 62%
    05:00 +22°C° 0 mm 6 m/S 760 mmHg 62%
    06:00 +22°C° 0 mm 6 m/S 760 mmHg 61%
    07:00 +22°C° 0 mm 6 m/S 760 mmHg 61%
    08:00 +22°C° 0 mm 6 m/S 761 mmHg 61%
    09:00 +22°C° 0 mm 6 m/S 761 mmHg 61%
    10:00 +22°C° 0 mm 5 m/S 760 mmHg 59%
    11:00 +22°C° 0 mm 5 m/S 760 mmHg 58%
    12:00 +22°C° 0 mm 5 m/S 760 mmHg 57%
    13:00 +23°C° 0 mm 5 m/S 759 mmHg 57%
    14:00 +23°C° 0 mm 5 m/S 759 mmHg 56%
    15:00 +23°C° 0 mm 5 m/S 759 mmHg 56%
    16:00 +23°C° 0 mm 4 m/S 759 mmHg 55%
    17:00 +24°C° 0 mm 3 m/S 759 mmHg 55%
    18:00 +24°C° 0 mm 3 m/S 758 mmHg 54%
    19:00 +24°C° 0 mm 2 m/S 759 mmHg 54%
    20:00 +23°C° 0 mm 2 m/S 759 mmHg 54%
    21:00 +23°C° 0 mm 1 m/S 759 mmHg 53%
    22:00 +23°C° 0 mm 2 m/S 758 mmHg 54%
    23:00 +23°C° 0 mm 2 m/S 758 mmHg 55%
    Mehr zeigen